• In Latvia
  • List of Countries
  • For 7 days
  • Water Temperature
  • Satellite Maps
  • Weather Map
  • Weather Widgets
  • user-avatar
    Login

    Hourly Weather Plawowice

    Today, 19 October, Friday

    Time Temperature Precipitation Wind Pressure Humidity
    00:00 +14°C° 0 mm 1 mps 747 mmHg 71%
    01:00 +13°C° 0 mm 1 mps 747 mmHg 73%
    02:00 +13°C° 0 mm 1 mps 747 mmHg 75%
    03:00 +13°C° 0 mm 2 mps 747 mmHg 76%
    04:00 +13°C° 0 mm 2 mps 747 mmHg 77%
    05:00 +13°C° 0 mm 2 mps 747 mmHg 78%
    06:00 +13°C° 0 mm 2 mps 747 mmHg 78%
    07:00 +13°C° 0 mm 2 mps 748 mmHg 79%
    08:00 +14°C° 0 mm 2 mps 748 mmHg 74%
    09:00 +15°C° 0 mm 2 mps 748 mmHg 70%
    10:00 +16°C° 0 mm 2 mps 748 mmHg 65%
    11:00 +17°C° 0 mm 2 mps 748 mmHg 62%
    12:00 +18°C° 0 mm 2 mps 748 mmHg 59%
    13:00 +17°C° 0 mm 3 mps 748 mmHg 56%
    14:00 +17°C° 0 mm 3 mps 748 mmHg 58%
    15:00 +16°C° 0 mm 2 mps 748 mmHg 60%
    16:00 +16°C° 0 mm 2 mps 748 mmHg 62%
    17:00 +15°C° 0 mm 2 mps 748 mmHg 68%
    18:00 +13°C° 0 mm 2 mps 749 mmHg 75%
    19:00 +12°C° 0 mm 2 mps 749 mmHg 81%
    20:00 +12°C° 0 mm 2 mps 749 mmHg 84%
    21:00 +11°C° 0 mm 1 mps 749 mmHg 87%
    22:00 +11°C° 0 mm 1 mps 749 mmHg 90%
    23:00 +10°C° 0 mm 1 mps 749 mmHg 91%

    Tomorrow, 20 October, Saturday

    Time Temperature Precipitation Wind Pressure Humidity
    00:00 +10°C° 0 mm 1 mps 750 mmHg 92%
    01:00 +10°C° 0 mm 1 mps 750 mmHg 93%
    02:00 +10°C° 0 mm 1 mps 750 mmHg 94%
    03:00 +10°C° 0 mm 1 mps 750 mmHg 94%
    04:00 +9°C° 0 mm 1 mps 750 mmHg 94%
    05:00 +10°C° 0 mm 1 mps 750 mmHg 93%
    06:00 +10°C° 0 mm 1 mps 750 mmHg 92%
    07:00 +10°C° 0 mm 1 mps 750 mmHg 91%
    08:00 +11°C° 0 mm 1 mps 750 mmHg 84%
    09:00 +13°C° 0 mm 1 mps 751 mmHg 77%
    10:00 +14°C° 0 mm 1 mps 751 mmHg 70%
    11:00 +14°C° 0 mm 2 mps 750 mmHg 67%
    12:00 +15°C° 0 mm 2 mps 750 mmHg 64%
    13:00 +15°C° 0 mm 2 mps 750 mmHg 61%
    14:00 +15°C° 0.1 mm 2 mps 750 mmHg 65%
    15:00 +14°C° 0.1 mm 2 mps 750 mmHg 69%
    16:00 +14°C° 0.1 mm 2 mps 750 mmHg 72%
    17:00 +12°C° 0.3 mm 3 mps 750 mmHg 76%
    18:00 +11°C° 0.3 mm 3 mps 750 mmHg 79%
    19:00 +11°C° 0.3 mm 3 mps 750 mmHg 82%
    20:00 +10°C° 0.5 mm 3 mps 750 mmHg 81%
    21:00 +10°C° 0.5 mm 3 mps 750 mmHg 81%
    22:00 +9°C° 0.5 mm 3 mps 750 mmHg 80%
    23:00 +9°C° 0.5 mm 3 mps 750 mmHg 81%

    Day after tomorrow, 21 October, Sunday

    Time Temperature Precipitation Wind Pressure Humidity
    00:00 +8°C° 0.5 mm 3 mps 750 mmHg 82%
    01:00 +8°C° 0.5 mm 3 mps 750 mmHg 82%
    02:00 +8°C° 0.3 mm 3 mps 750 mmHg 84%
    03:00 +8°C° 0.3 mm 3 mps 750 mmHg 85%
    04:00 +8°C° 0.3 mm 3 mps 750 mmHg 87%
    05:00 +8°C° 0.1 mm 3 mps 751 mmHg 88%
    06:00 +7°C° 0.1 mm 3 mps 751 mmHg 90%
    07:00 +7°C° 0.1 mm 3 mps 751 mmHg 91%
    08:00 +8°C° 0 mm 3 mps 751 mmHg 85%
    09:00 +9°C° 0 mm 3 mps 752 mmHg 80%
    10:00 +10°C° 0 mm 3 mps 752 mmHg 74%
    11:00 +11°C° 0 mm 3 mps 752 mmHg 71%
    12:00 +11°C° 0 mm 3 mps 752 mmHg 67%
    13:00 +12°C° 0 mm 3 mps 752 mmHg 64%
    14:00 +12°C° 0 mm 3 mps 752 mmHg 64%
    15:00 +12°C° 0 mm 2 mps 752 mmHg 65%
    16:00 +12°C° 0 mm 2 mps 752 mmHg 66%
    17:00 +10°C° 0 mm 2 mps 752 mmHg 68%
    18:00 +9°C° 0 mm 2 mps 752 mmHg 70%
    19:00 +10°C° 0 mm 1 mps 752 mmHg 72%
    20:00 +9°C° 0 mm 1 mps 753 mmHg 75%
    21:00 +8°C° 0 mm 1 mps 753 mmHg 77%
    22:00 +8°C° 0 mm 1 mps 753 mmHg 79%
    23:00 +7°C° 0 mm 1 mps 752 mmHg 81%

    22 October, Monday

    Time Temperature Precipitation Wind Pressure Humidity
    00:00 +7°C° 0 mm 1 mps 752 mmHg 83%
    01:00 +5°C° 0 mm 0 mps 752 mmHg 84%
    02:00 +5°C° 0 mm 0 mps 752 mmHg 85%
    03:00 +5°C° 0 mm 0 mps 752 mmHg 86%
    04:00 +5°C° 0 mm 0 mps 751 mmHg 87%
    05:00 +5°C° 0 mm 0 mps 751 mmHg 87%
    06:00 +5°C° 0 mm 0 mps 752 mmHg 87%
    07:00 +5°C° 0 mm 0 mps 752 mmHg 87%
    08:00 +7°C° 0 mm 0 mps 751 mmHg 79%
    09:00 +8°C° 0 mm 0 mps 751 mmHg 71%
    10:00 +10°C° 0 mm 0 mps 751 mmHg 63%
    11:00 +11°C° 0 mm 0 mps 751 mmHg 59%
    12:00 +13°C° 0 mm 1 mps 750 mmHg 55%
    13:00 +13°C° 0 mm 1 mps 750 mmHg 51%
    14:00 +13°C° 0 mm 1 mps 749 mmHg 53%
    15:00 +12°C° 0 mm 1 mps 749 mmHg 56%
    16:00 +11°C° 0 mm 1 mps 749 mmHg 58%
    17:00 +10°C° 0 mm 1 mps 749 mmHg 62%
    18:00 +9°C° 0 mm 1 mps 749 mmHg 65%
    19:00 +8°C° 0 mm 1 mps 749 mmHg 69%
    20:00 +8°C° 0 mm 1 mps 749 mmHg 71%
    21:00 +8°C° 0 mm 1 mps 749 mmHg 73%
    22:00 +6°C° 0 mm 2 mps 748 mmHg 75%
    23:00 +6°C° 0.1 mm 2 mps 748 mmHg 75%

    23 October, Tuesday

    Time Temperature Precipitation Wind Pressure Humidity
    00:00 +6°C° 0.1 mm 2 mps 748 mmHg 76%
    01:00 +7°C° 0.1 mm 3 mps 748 mmHg 77%
    02:00 +7°C° 0.5 mm 3 mps 748 mmHg 80%
    03:00 +6°C° 0.5 mm 4 mps 748 mmHg 82%
    04:00 +6°C° 0.5 mm 5 mps 748 mmHg 84%
    05:00 +6°C° 0.5 mm 4 mps 748 mmHg 84%
    06:00 +6°C° 0.5 mm 4 mps 748 mmHg 84%
    07:00 +6°C° 0.5 mm 4 mps 748 mmHg 84%
    08:00 +6°C° 0.1 mm 4 mps 748 mmHg 78%
    09:00 +7°C° 0.1 mm 4 mps 748 mmHg 72%
    10:00 +8°C° 0.1 mm 5 mps 749 mmHg 66%
    11:00 +8°C° 0 mm 5 mps 748 mmHg 62%
    12:00 +9°C° 0 mm 5 mps 748 mmHg 58%
    13:00 +9°C° 0 mm 5 mps 748 mmHg 54%
    14:00 +8°C° 0 mm 4 mps 747 mmHg 57%
    15:00 +8°C° 0 mm 4 mps 747 mmHg 59%
    16:00 +7°C° 0 mm 4 mps 746 mmHg 62%
    17:00 +7°C° 0 mm 4 mps 746 mmHg 65%
    18:00 +6°C° 0 mm 4 mps 745 mmHg 67%
    19:00 +5°C° 0 mm 4 mps 745 mmHg 70%
    20:00 +5°C° 0 mm 5 mps 744 mmHg 71%
    21:00 +5°C° 0 mm 6 mps 743 mmHg 72%
    22:00 +5°C° 0 mm 6 mps 743 mmHg 72%
    23:00 +5°C° 0.2 mm 6 mps 742 mmHg 74%

    24 October, Wednesday

    Time Temperature Precipitation Wind Pressure Humidity
    00:00 +5°C° 0.2 mm 7 mps 740 mmHg 77%
    01:00 +6°C° 0.2 mm 7 mps 739 mmHg 79%
    02:00 +6°C° 0.6 mm 7 mps 738 mmHg 80%
    03:00 +6°C° 0.6 mm 8 mps 737 mmHg 81%
    04:00 +6°C° 0.6 mm 8 mps 736 mmHg 82%
    05:00 +7°C° 0.9 mm 8 mps 736 mmHg 84%
    06:00 +9°C° 0.9 mm 8 mps 735 mmHg 85%
    07:00 +9°C° 0.9 mm 8 mps 734 mmHg 87%
    08:00 +10°C° 0.7 mm 8 mps 734 mmHg 84%
    09:00 +10°C° 0.7 mm 9 mps 734 mmHg 82%
    10:00 +11°C° 0.7 mm 9 mps 734 mmHg 79%
    11:00 +11°C° 0.4 mm 9 mps 734 mmHg 75%
    12:00 +11°C° 0.4 mm 9 mps 734 mmHg 71%
    13:00 +11°C° 0.4 mm 9 mps 734 mmHg 68%
    14:00 +11°C° 0.2 mm 8 mps 735 mmHg 68%
    15:00 +10°C° 0.2 mm 7 mps 736 mmHg 67%
    16:00 +9°C° 0.2 mm 6 mps 736 mmHg 67%
    17:00 +9°C° 0 mm 5 mps 737 mmHg 69%
    18:00 +8°C° 0 mm 4 mps 737 mmHg 71%
    19:00 +8°C° 0 mm 4 mps 738 mmHg 73%
    20:00 +9°C° 0 mm 3 mps 738 mmHg 74%
    21:00 +8°C° 0 mm 3 mps 739 mmHg 74%
    22:00 +8°C° 0 mm 3 mps 739 mmHg 75%
    23:00 +8°C° 0 mm 3 mps 739 mmHg 76%
    Show more